Elmo, TX

9:00 PM CDT on August 28, 2016 (GMT -0500)
Terrell Municipal

Weather History for KTRL - January, 2013

Change the Weather History Date:

Thursday, January 10, 2013

  Actual Average (KDFW) Record (KDFW)
Temperature  
Mean Temperature 54 °F 46 °F  
Max Temperature 60 °F 56 °F 79 °F (1995)
Min Temperature 48 °F 35 °F 7 °F (1982)
Degree Days  
Heating Degree Days 11 20  
Month to date heating degree days 200  
Since 1 July heating degree days 1112  
Cooling Degree Days 0 0  
Month to date cooling degree days 0  
Year to date cooling degree days 0  
Growing Degree Days 4 (Base 50)    
Moisture  
Dew Point 51 °F    
Average Humidity 82    
Maximum Humidity 94    
Minimum Humidity 58    
Precipitation  
Precipitation 0.04 in 0.06 in 0.76 in (1913)
Month to date precipitation 0.63  
Year to date precipitation 0.63  
Snow  
Snow 0.00 in 0.00 in 3.00 in (1906)
Month to date snowfall 0.0  
Since 1 July snowfall 0.3  
Snow Depth -    
Sea Level Pressure  
Sea Level Pressure 29.96 in    
Wind  
Wind Speed 11 mph (South)    
Max Wind Speed 18 mph    
Max Gust Speed 26 mph    
Visibility 9 miles    
Events Rain    
T = Trace of Precipitation, MM = Missing Value Source: NWS Daily Summary

Daily Weather History Graph

Daily Weather History Graph

Search for Another Location

Airport or City:

Trip Planner

Search our weather history database for the weather conditions in past years. The results will help you decide how hot, cold, wet, or windy it might be!

Date:

Astronomy

Jan. 10, 2013 Rise Set
Actual Time 7:28 AM CST 5:37 PM CST
Civil Twilight 7:01 AM CST 6:04 PM CST
Nautical Twilight 6:30 AM CST 6:34 PM CST
Astronomical Twilight 6:00 AM CST 7:04 PM CST
Moon 6:09 AM CST (1/10) 4:45 PM CST (1/10)
Length of Visible Light 11h 03m
Length of Day
10h 09m
Waning Crescent, 2% of the Moon is Illuminated
Jan 10
Waning Crescent
Jan 11
New
Jan 18
First Quarter
Jan 26
Full
Feb 3
Last Quarter

Hourly Weather History & Observations

Time (CST) Temp. Dew Point Humidity Pressure Visibility Wind Dir Wind Speed Gust Speed Precip Events Conditions
12:53 AM 55.9 °F 54.0 °F 93% 30.00 in 5.0 mi ENE 11.5 mph - N/A   Overcast
1:39 AM 57.2 °F 55.4 °F 94% 30.00 in 2.5 mi ENE 8.1 mph - 0.01 in Rain Light Rain
1:48 AM 57.2 °F 55.4 °F 94% 30.00 in 4.0 mi ENE 8.1 mph - 0.01 in Rain Light Rain
1:53 AM 57.0 °F 55.0 °F 93% 29.99 in 4.0 mi ENE 11.5 mph - 0.01 in Rain Light Rain
2:04 AM 57.2 °F 55.4 °F 94% 29.99 in 7.0 mi East 11.5 mph - 0.00 in Rain Light Rain
2:53 AM 57.0 °F 55.0 °F 93% 29.96 in 10.0 mi East 11.5 mph - 0.01 in   Overcast
3:35 AM 57.2 °F 55.4 °F 94% 29.97 in 2.5 mi ESE 9.2 mph - 0.00 in Rain Light Rain
4:53 AM 60.1 °F 57.9 °F 93% 29.95 in 10.0 mi South 6.9 mph - 0.01 in   Overcast
5:10 AM 60.8 °F 57.2 °F 88% 29.94 in 6.0 mi South 8.1 mph - N/A   Overcast
5:39 AM 60.8 °F 57.2 °F 88% 29.94 in 10.0 mi South 9.2 mph - N/A   Overcast
5:53 AM 60.1 °F 57.9 °F 93% 29.93 in 8.0 mi SSW 8.1 mph - N/A   Overcast
6:06 AM 59.0 °F 55.4 °F 88% 29.94 in 10.0 mi South 11.5 mph 19.6 mph N/A   Overcast
6:13 AM 59.0 °F 55.4 °F 88% 29.95 in 10.0 mi SSW 10.4 mph - N/A   Overcast
6:53 AM 57.9 °F 55.9 °F 93% 29.95 in 9.0 mi South 6.9 mph - N/A   Overcast
7:08 AM 57.2 °F 55.4 °F 94% 29.95 in 10.0 mi South 13.8 mph 19.6 mph N/A   Overcast
7:53 AM 57.9 °F 54.0 °F 87% 29.96 in 10.0 mi SSW 11.5 mph - N/A   Overcast
8:00 AM 57.2 °F 53.6 °F 88% 29.97 in 10.0 mi SSW 11.5 mph - N/A   Overcast
8:19 AM 55.4 °F 53.6 °F 94% 29.96 in 8.0 mi SSW 8.1 mph - N/A   Scattered Clouds
8:53 AM 57.0 °F 54.0 °F 89% 29.96 in 10.0 mi SSW 9.2 mph - N/A   Partly Cloudy
9:04 AM 57.2 °F 53.6 °F 88% 29.96 in 10.0 mi SSW 11.5 mph - N/A   Partly Cloudy
9:29 AM 55.4 °F 51.8 °F 88% 29.95 in 10.0 mi SSW 10.4 mph - N/A   Mostly Cloudy
9:53 AM 55.9 °F 51.1 °F 84% 29.96 in 10.0 mi SSW 8.1 mph - N/A   Scattered Clouds
10:53 AM 57.9 °F 50.0 °F 75% 29.99 in 10.0 mi South 16.1 mph 21.9 mph N/A   Scattered Clouds
11:02 AM 57.2 °F 48.2 °F 72% 29.99 in 10.0 mi South 16.1 mph - N/A   Mostly Cloudy
11:23 AM 59.0 °F 48.2 °F 67% 29.97 in 10.0 mi SW 12.7 mph - N/A   Scattered Clouds
11:53 AM 59.0 °F 48.0 °F 67% 29.95 in 10.0 mi SSW 13.8 mph 20.7 mph N/A   Mostly Cloudy
12:05 PM 57.2 °F 48.2 °F 72% 29.95 in 10.0 mi SSW 16.1 mph 23.0 mph 0.01 in   Mostly Cloudy
12:53 PM 60.1 °F 46.0 °F 60% 29.93 in 10.0 mi SSW 18.4 mph 26.5 mph 0.01 in   Scattered Clouds
1:53 PM 59.0 °F 44.1 °F 58% 29.92 in 10.0 mi SW 18.4 mph 26.5 mph N/A   Mostly Cloudy
2:53 PM 59.0 °F 45.0 °F 60% 29.93 in 10.0 mi SSW 12.7 mph - N/A   Mostly Cloudy
3:53 PM 57.9 °F 44.1 °F 60% 29.93 in 10.0 mi SSW 17.3 mph - N/A   Scattered Clouds
4:53 PM 55.9 °F 44.1 °F 64% 29.95 in 10.0 mi WSW 16.1 mph - N/A   Clear
5:53 PM 55.0 °F 44.1 °F 67% 29.97 in 10.0 mi SW 11.5 mph - N/A   Overcast
6:53 PM 53.1 °F 44.1 °F 71% 29.98 in 10.0 mi SSW 10.4 mph - N/A   Scattered Clouds
7:53 PM 52.0 °F 44.1 °F 74% 29.97 in 10.0 mi South 8.1 mph - N/A   Clear
8:53 PM 50.0 °F 44.1 °F 80% 29.99 in 10.0 mi South 6.9 mph - N/A   Clear
9:53 PM 48.0 °F 43.0 °F 83% 29.98 in 10.0 mi South 4.6 mph - N/A   Clear
10:53 PM 48.0 °F 43.0 °F 83% 29.97 in 10.0 mi South 6.9 mph - N/A   Clear
11:53 PM 48.0 °F 43.0 °F 83% 29.99 in 10.0 mi South 3.5 mph - N/A   Clear